• Join FlightAware (Why Join?)
  • Login
  • US Flag 
10:04AM EST


 

Airport Tracker/Info


-or-


 

Live Flight TrackerFlight Track Log ✈ SKW7363 ✈ 19-Jan-2014 ✈ KSLC - KTWF

Flight Track Log - Related Links

Times and Time Zones

All times are in EST time to prevent confusion due to time zone crossing. See the SKW7363 flight status page for this flight to view local times or setup timezone preferences in your user account.

Time Position Orientation Groundspeed Altitude Reporting Facility
EST Latitude Longitude Course Direction KTS MPH feet Rate Location/Type
06:57PM 40.8117 -112.0058 321° Northwest 152 175 4,900  Level Salt Lake Center
06:57PM 40.8192 -112.0139 321° Northwest 155 178 5,200 1,185 Climbing Salt Lake Center
06:58PM 40.8417 -112.0819 294° West 204 235 6,500 1,385 Climbing Salt Lake Center
06:58PM 40.8461 -112.0933 297° West 223 257 6,700 1,065 Climbing Salt Lake Center
06:59PM 40.8697 -112.1517 298° West 215 247 7,600 1,210 Climbing Salt Lake Center
07:00PM 40.9050 -112.2181 305° West 220 253 9,100 1,426 Climbing Salt Lake Center
07:01PM 40.9941 -112.2716 314° West  Level Estimated
07:01PM 40.9575 -112.2633 327° Northwest 221 254 10,500  Level Salt Lake Center
07:02PM 41.0526 -112.3353 321° Northwest  Level FlightAware Approximate
07:02PM 41.0114 -112.3100 327° Northwest 234 269 11,200  Level Salt Lake Center
07:03PM 41.0653 -112.3633 323° Northwest 241 277 12,300 1,131 Climbing Salt Lake Center
07:04PM 41.1289 -112.4208 326° Northwest 229 264 13,500 1,082 Climbing Salt Lake Center
07:05PM 41.1858 -112.4689 328° Northwest 240 276 14,500 878 Climbing Salt Lake Center
07:06PM 41.2311 -112.5331 313° West 238 274 15,300 878 Climbing Salt Lake Center
07:07PM 41.2736 -112.6022 309° West 241 277 16,300 885 Climbing Salt Lake Center
07:08PM 41.3125 -112.6733 306° West 239 275 17,100 787 Climbing Salt Lake Center
07:09PM 41.3575 -112.7408 312° West 243 280 17,900 634 Climbing Salt Lake Center
07:10PM 41.4056 -112.8061 314° West 248 285 18,400 585 Climbing Salt Lake Center
07:11PM 41.4542 -112.8692 316° Northwest 244 281 19,100 590 Climbing Salt Lake Center
07:12PM 41.5017 -112.9364 313° West 249 287 19,600 639 Climbing Salt Lake Center
07:13PM 41.5442 -113.0072 309° West 247 284 20,400 780 Climbing Salt Lake Center
07:14PM 41.5892 -113.0978 304° West 246 283 21,200 585 Climbing Salt Lake Center
07:15PM 41.6317 -113.1692 309° West 245 282 21,600 393 Climbing Salt Lake Center
07:16PM 41.6783 -113.2383 312° West 248 285 22,000 195 Climbing Salt Lake Center
07:17PM 41.7297 -113.3067 315° West 256 295 22,000  Level Salt Lake Center
07:19PM 41.7767 -113.3792 311° West 259 298 22,000 -49 Level Salt Lake Center
07:20PM 41.8211 -113.4514 310° West 253 291 21,900 -390 Descending Salt Lake Center
07:21PM 41.8689 -113.5247 311° West 257 296 21,200 -829 Descending Salt Lake Center
07:22PM 41.9192 -113.6033 311° West 274 315 20,200 -984 Descending Salt Lake Center
07:23PM 41.9719 -113.6825 312° West 282 325 19,200 -984 Descending Salt Lake Center
07:24PM 42.0228 -113.7642 310° West 284 327 18,200 -1,122 Descending Salt Lake Center
07:25PM 42.0853 -113.8614 311° West 287 330 16,900 -1,415 Descending Salt Lake Center
07:26PM 42.1372 -113.9447 310° West 289 333 15,300 -1,475 Descending Salt Lake Center
07:27PM 42.1883 -114.0269 310° West 288 331 13,900 -1,415 Descending Salt Lake Center
07:28PM 42.2431 -114.1122 311° West 286 329 12,400 -1,951 Descending Salt Lake Center
07:29PM 42.2992 -114.1917 314° West 291 335 9,900 -2,244 Descending Salt Lake Center
07:30PM 42.3542 -114.2650 315° West 267 307 7,800 -2,032 Descending Salt Lake Center